This is the latest recevied weather packets stored in our database for station/object SQ5AAG-2. If no packets are shown the sender has not sent any weather packets the latest 1 day(s).
| Time | Temp. | Humidity | Pressure | Rain* | Wind** | Luminosity | Snow |
|---|---|---|---|---|---|---|---|
| 1778048783 | 20° C | 50% | 990.6 hPa | 0 mm | - | - | - |
| 1778048483 | 21.11° C | 50% | 990.7 hPa | 0 mm | - | - | - |
| 1778047582 | 22.78° C | 51% | 990.7 hPa | 0 mm | - | - | - |
| 1778047282 | 22.22° C | 52% | 990.7 hPa | 0 mm | - | - | - |
| 1778046681 | 21.67° C | 54% | 990.9 hPa | 0 mm | - | - | - |
| 1778046381 | 21.67° C | 56% | 991 hPa | 0 mm | - | - | - |
| 1778045780 | 20.56° C | 60% | 990.9 hPa | 0 mm | - | - | - |
| 1778045480 | 20° C | 61% | 990.9 hPa | 0 mm | - | - | - |
| 1778044879 | 19.44° C | 63% | 991 hPa | 0 mm | - | - | - |
| 1778044579 | 19.44° C | 63% | 991.1 hPa | 0 mm | - | - | - |
| 1778044279 | 19.44° C | 64% | 991.1 hPa | 0 mm | - | - | - |
| 1778043979 | 18.89° C | 67% | 991.3 hPa | 0 mm | - | - | - |
| 1778043378 | 17.78° C | 71% | 991 hPa | 0 mm | - | - | - |
| 1778043084 | 16.67° C | 73% | 799 hPa | 0 mm | - | - | - |
| 1778043078 | 16.67° C | 73% | 990.7 hPa | 0 mm | - | - | - |
| 1778042777 | 16.11° C | 74% | 990.6 hPa | 0 mm | - | - | - |
| 1778042477 | 15.56° C | 76% | 990.6 hPa | 0 mm | - | - | - |
| 1778042177 | 15° C | 76% | 990.8 hPa | 0 mm | - | - | - |
| 1778041876 | 15° C | 77% | 990.8 hPa | 0 mm | - | - | - |
| 1778041578 | 14.44° C | 78% | 991 hPa | 0 mm | - | - | - |
| 1778041276 | 14.44° C | 81% | 990.8 hPa | 0 mm | - | - | - |
| 1778040375 | 12.22° C | 82% | 991.4 hPa | 0 mm | - | - | - |
| 1778040075 | 12.22° C | 82% | 991.4 hPa | 0 mm | - | - | - |
| 1778039474 | 12.22° C | 82% | 991.3 hPa | 0 mm | - | - | - |
| 1778039174 | 12.22° C | 82% | 991.3 hPa | 0 mm | - | - | - |
* Rain latest hour (hover to see other rain measurements)
** Current wind speed in m/s (hover to see current wind gust speed)